CAL9906 KMIA-CYUL

Flight info

Callsign CAL9906
Flight time 2h 54m
Altitude 36000
Route FOLZZ3 ALYRA/N0479F380 DCT GRUBR/N0479F370 Y299 SEELO DCT WAALT Q131 EARZZ DCT JAMIE/N0473F390 Q133 PBERG CARTR5
Aircraft B77W/H-SDE1E2E3FGHIJ2J3J5M1P2RWY/LB1D1

Departure

Time 2026-05-06 13:40
Airport Miami International Airport (KMIA)

Arrival

Time 2026-05-06 16:35
Airport Montreal / Pierre Elliott Trudeau International Airport (CYUL)
Time Latitude Longitude Altitude Speed Heading
2026-05-06 13:05 25.79577 -80.28486 29 ft 0 kts 119°
2026-05-06 13:16 25.79579 -80.28490 28 ft 3 kts 120°
2026-05-06 13:16 25.79595 -80.28513 26 ft 4 kts 146°
2026-05-06 13:16 25.79617 -80.28522 26 ft 4 kts 200°
2026-05-06 13:16 25.79632 -80.28509 26 ft 1 kts 242°
2026-05-06 13:17 25.79633 -80.28506 26 ft 0 kts 242°
2026-05-06 13:34 25.79614 -80.28549 31 ft 11 kts 247°
2026-05-06 13:34 25.79594 -80.28634 27 ft 12 kts 257°
2026-05-06 13:34 25.79576 -80.28721 28 ft 12 kts 258°
2026-05-06 13:34 25.79562 -80.28809 27 ft 12 kts 263°
2026-05-06 13:35 25.79595 -80.28890 27 ft 12 kts 320°
2026-05-06 13:35 25.79677 -80.28902 28 ft 12 kts 356°
2026-05-06 13:35 25.79761 -80.28907 30 ft 12 kts 357°
2026-05-06 13:35 25.79846 -80.28910 31 ft 12 kts 358°
2026-05-06 13:36 25.79931 -80.28913 30 ft 12 kts 357°
2026-05-06 13:36 25.80002 -80.28954 29 ft 13 kts 287°
2026-05-06 13:36 25.80005 -80.29054 29 ft 13 kts 267°
2026-05-06 13:36 25.80003 -80.29153 31 ft 13 kts 269°
2026-05-06 13:37 25.79999 -80.29254 30 ft 14 kts 266°
2026-05-06 13:37 25.79994 -80.29368 29 ft 16 kts 268°
2026-05-06 13:37 25.79990 -80.29494 26 ft 15 kts 268°
2026-05-06 13:37 25.79988 -80.29608 26 ft 15 kts 270°
2026-05-06 13:38 25.79990 -80.29721 26 ft 15 kts 272°
2026-05-06 13:38 25.79995 -80.29834 21 ft 15 kts 266°
2026-05-06 13:38 25.79971 -80.29942 20 ft 13 kts 264°
2026-05-06 13:38 25.79966 -80.30040 21 ft 12 kts 276°
2026-05-06 13:39 25.79993 -80.30104 26 ft 9 kts 308°
2026-05-06 13:39 25.80050 -80.30121 24 ft 9 kts 17°
2026-05-06 13:39 25.80074 -80.30055 25 ft 11 kts 83°
2026-05-06 13:39 25.80086 -80.29902 21 ft 44 kts 87°
2026-05-06 13:40 25.80110 -80.29240 29 ft 125 kts 88°
2026-05-06 13:40 25.80157 -80.28026 113 ft 179 kts 87°
2026-05-06 13:40 25.80226 -80.26654 909 ft 178 kts 86°
2026-05-06 13:40 25.80317 -80.25261 1692 ft 182 kts 87°
2026-05-06 13:41 25.79995 -80.23901 2105 ft 198 kts 129°
2026-05-06 13:41 25.78929 -80.22811 2352 ft 220 kts 134°
2026-05-06 13:41 25.78084 -80.21282 2583 ft 246 kts 113°
2026-05-06 13:41 25.77344 -80.19493 3184 ft 262 kts 115°
2026-05-06 13:42 25.76522 -80.17663 4085 ft 267 kts 116°
2026-05-06 13:42 25.75662 -80.15812 4968 ft 273 kts 117°
2026-05-06 13:42 25.74769 -80.13938 5854 ft 276 kts 116°
2026-05-06 13:42 25.74178 -80.11910 6526 ft 283 kts 91°
2026-05-06 13:43 25.74588 -80.09799 7343 ft 284 kts 60°
2026-05-06 13:43 25.75765 -80.08055 8104 ft 285 kts 48°
2026-05-06 13:43 25.77095 -80.06375 8829 ft 292 kts 47°
2026-05-06 13:43 25.78447 -80.04675 9679 ft 295 kts 47°
2026-05-06 13:44 25.79815 -80.02959 10493 ft 301 kts 47°
2026-05-06 13:44 25.81255 -80.01150 10827 ft 326 kts 47°
2026-05-06 13:44 25.82820 -79.99184 11043 ft 353 kts 47°
2026-05-06 13:44 25.84498 -79.97066 11408 ft 374 kts 47°
2026-05-06 13:45 25.86232 -79.94867 12135 ft 383 kts 47°
2026-05-06 13:45 25.89785 -79.90350 14004 ft 392 kts 47°
2026-05-06 13:45 25.91589 -79.88054 14860 ft 397 kts 47°
2026-05-06 13:46 25.93417 -79.85727 15722 ft 402 kts 47°
2026-05-06 13:46 25.95361 -79.83487 16465 ft 406 kts 39°
2026-05-06 13:46 25.97675 -79.81706 17039 ft 415 kts 27°
2026-05-06 13:46 26.00330 -79.80402 17624 ft 420 kts 18°
2026-05-06 13:47 26.03109 -79.79313 18255 ft 427 kts 18°
2026-05-06 13:47 26.05958 -79.78187 19002 ft 430 kts 18°
2026-05-06 13:47 26.08749 -79.77074 19724 ft 434 kts 18°
2026-05-06 13:47 26.11604 -79.75927 20378 ft 439 kts 18°
2026-05-06 13:48 26.14486 -79.74764 21000 ft 444 kts 18°
2026-05-06 13:48 26.17402 -79.73582 21599 ft 448 kts 18°
2026-05-06 13:48 26.20345 -79.72387 22171 ft 453 kts 18°
2026-05-06 13:48 26.23321 -79.71175 22737 ft 457 kts 18°
2026-05-06 13:49 26.26317 -79.69952 23265 ft 461 kts 18°
2026-05-06 13:49 26.29340 -79.68719 23819 ft 465 kts 18°
2026-05-06 13:49 26.32390 -79.67474 24319 ft 468 kts 18°
2026-05-06 13:49 26.35461 -79.66219 24828 ft 472 kts 18°
2026-05-06 13:50 26.38550 -79.64955 25323 ft 474 kts 18°
2026-05-06 13:50 26.41656 -79.63685 25828 ft 477 kts 18°
2026-05-06 13:50 26.44786 -79.62405 26301 ft 480 kts 18°
2026-05-06 13:50 26.47927 -79.61119 26759 ft 483 kts 18°
2026-05-06 13:51 26.51086 -79.59825 27199 ft 485 kts 18°
2026-05-06 13:51 26.54266 -79.58521 27631 ft 488 kts 18°
2026-05-06 13:51 26.57458 -79.57212 28051 ft 490 kts 18°
2026-05-06 13:51 26.60666 -79.55895 28447 ft 492 kts 18°
2026-05-06 13:52 26.63890 -79.54571 28823 ft 495 kts 18°
2026-05-06 13:52 26.67124 -79.53242 29192 ft 496 kts 18°
2026-05-06 13:52 26.70373 -79.51907 29511 ft 499 kts 18°
2026-05-06 13:52 26.73633 -79.50567 29827 ft 500 kts 18°
2026-05-06 13:53 26.76906 -79.49219 30146 ft 502 kts 18°
2026-05-06 13:53 26.80191 -79.47866 30441 ft 504 kts 18°
2026-05-06 13:53 26.83488 -79.46506 30714 ft 505 kts 18°
2026-05-06 13:53 26.86792 -79.45144 30962 ft 507 kts 18°
2026-05-06 13:54 26.90105 -79.43775 31192 ft 509 kts 18°
2026-05-06 13:54 26.93429 -79.42402 31411 ft 510 kts 18°
2026-05-06 13:54 26.96760 -79.41026 31618 ft 511 kts 18°
2026-05-06 13:54 27.00095 -79.39647 31871 ft 511 kts 18°
2026-05-06 13:55 27.03428 -79.38268 32170 ft 509 kts 18°
2026-05-06 13:55 27.06747 -79.36893 32498 ft 508 kts 18°
2026-05-06 13:55 27.10052 -79.35525 32804 ft 506 kts 17°
2026-05-06 13:55 27.13353 -79.34157 33076 ft 505 kts 17°
2026-05-06 13:56 27.16650 -79.32790 33350 ft 505 kts 17°
2026-05-06 13:56 27.19942 -79.31422 33618 ft 504 kts 17°
2026-05-06 13:56 27.23223 -79.30060 33906 ft 503 kts 17°
2026-05-06 13:56 27.26501 -79.28698 34195 ft 501 kts 17°
2026-05-06 13:57 27.29768 -79.27341 34432 ft 501 kts 17°
2026-05-06 13:57 27.33030 -79.25985 34702 ft 500 kts 17°
2026-05-06 13:57 27.36289 -79.24627 34950 ft 499 kts 17°
2026-05-06 13:57 27.39543 -79.23274 35189 ft 498 kts 17°
2026-05-06 13:58 27.42792 -79.21920 35443 ft 498 kts 17°
2026-05-06 13:58 27.46032 -79.20566 35698 ft 496 kts 17°
2026-05-06 13:58 27.49270 -79.19213 35934 ft 496 kts 17°
2026-05-06 13:58 27.52513 -79.17858 36028 ft 498 kts 17°
2026-05-06 13:59 27.59005 -79.15144 36236 ft 496 kts 17°
2026-05-06 13:59 27.62236 -79.13792 36552 ft 493 kts 17°
2026-05-06 13:59 27.65440 -79.12449 36972 ft 488 kts 17°
2026-05-06 14:00 27.68593 -79.11124 37507 ft 480 kts 17°
2026-05-06 14:00 27.71707 -79.09818 37900 ft 476 kts 17°
2026-05-06 14:00 27.74810 -79.08518 38035 ft 476 kts 17°
2026-05-06 14:00 27.77914 -79.07218 38074 ft 475 kts 16°
2026-05-06 14:01 27.84082 -79.04628 38104 ft 470 kts 17°
2026-05-06 14:01 27.90190 -79.02058 38108 ft 467 kts 17°
2026-05-06 14:02 27.96277 -78.99498 38109 ft 466 kts 17°
2026-05-06 14:02 28.02347 -78.96938 38109 ft 466 kts 17°
2026-05-06 14:03 28.08431 -78.94371 38101 ft 467 kts 16°
2026-05-06 14:03 28.14538 -78.91791 38097 ft 469 kts 16°
2026-05-06 14:04 28.20657 -78.89201 38098 ft 470 kts 16°
2026-05-06 14:04 28.26793 -78.86600 38104 ft 471 kts 16°
2026-05-06 14:05 28.32937 -78.83995 38099 ft 472 kts 16°
2026-05-06 14:05 28.39090 -78.81381 38104 ft 472 kts 16°
2026-05-06 14:06 28.45248 -78.78760 38102 ft 473 kts 16°
2026-05-06 14:06 28.51410 -78.76138 38088 ft 473 kts 16°
2026-05-06 14:07 28.57568 -78.73511 38088 ft 472 kts 16°
2026-05-06 14:07 28.63721 -78.70886 38091 ft 472 kts 16°
2026-05-06 14:08 28.69874 -78.68256 38097 ft 472 kts 16°
2026-05-06 14:08 28.76026 -78.65622 38102 ft 472 kts 16°
2026-05-06 14:09 28.82178 -78.62988 38104 ft 472 kts 16°
2026-05-06 14:09 28.88330 -78.60347 38103 ft 472 kts 16°
2026-05-06 14:10 28.94481 -78.57706 38104 ft 472 kts 16°
2026-05-06 14:10 29.00633 -78.55059 38104 ft 472 kts 16°
2026-05-06 14:11 29.06784 -78.52410 38101 ft 473 kts 16°
2026-05-06 14:11 29.12937 -78.49756 38103 ft 472 kts 16°
2026-05-06 14:12 29.19089 -78.47099 38099 ft 473 kts 16°
2026-05-06 14:12 29.24204 -78.44887 38104 ft 473 kts 16°
2026-05-06 14:13 29.30369 -78.42216 38101 ft 474 kts 16°
2026-05-06 14:13 29.36539 -78.39542 38102 ft 474 kts 16°
2026-05-06 14:14 29.42709 -78.36864 38103 ft 474 kts 16°
2026-05-06 14:14 29.49041 -78.35372 38110 ft 461 kts 357°
2026-05-06 14:15 29.55316 -78.36300 38104 ft 452 kts 341°
2026-05-06 14:15 29.61360 -78.38340 38101 ft 453 kts 341°
2026-05-06 14:16 29.67422 -78.40388 38101 ft 455 kts 341°
2026-05-06 14:16 29.69433 -78.41055 38104 ft 455 kts 341°
2026-05-06 14:17 29.74936 -78.42855 38105 ft 456 kts 341°
2026-05-06 14:17 29.81047 -78.44840 38103 ft 457 kts 341°
2026-05-06 14:18 29.87161 -78.46829 38103 ft 457 kts 341°
2026-05-06 14:18 29.93280 -78.48826 38098 ft 457 kts 341°
2026-05-06 14:19 29.99395 -78.50825 38100 ft 456 kts 341°
2026-05-06 14:19 30.05498 -78.52820 38100 ft 455 kts 341°
2026-05-06 14:20 30.11617 -78.54696 38094 ft 457 kts 347°
2026-05-06 14:20 30.17990 -78.55304 38108 ft 462 kts 356°
2026-05-06 14:21 30.24418 -78.54640 38109 ft 466 kts
2026-05-06 14:21 30.30846 -78.53631 38102 ft 466 kts
2026-05-06 14:22 30.37283 -78.52681 38102 ft 466 kts
2026-05-06 14:22 30.43720 -78.51748 38111 ft 466 kts
2026-05-06 14:23 30.50153 -78.50724 38112 ft 467 kts
2026-05-06 14:23 30.56592 -78.49668 38110 ft 468 kts
2026-05-06 14:24 30.63027 -78.48612 38116 ft 467 kts
2026-05-06 14:24 30.69464 -78.47565 38122 ft 467 kts
2026-05-06 14:25 30.75908 -78.46519 38119 ft 468 kts
2026-05-06 14:25 30.82350 -78.45475 38114 ft 468 kts
2026-05-06 14:26 30.88797 -78.44425 38108 ft 468 kts
2026-05-06 14:26 30.95242 -78.43375 38112 ft 467 kts
2026-05-06 14:27 31.01681 -78.42324 38111 ft 467 kts
2026-05-06 14:27 31.08117 -78.41272 38111 ft 467 kts
2026-05-06 14:28 31.14548 -78.40219 38109 ft 467 kts
2026-05-06 14:28 31.20975 -78.39166 38110 ft 466 kts
2026-05-06 14:29 31.27399 -78.38110 38107 ft 466 kts
2026-05-06 14:29 31.33832 -78.37053 38102 ft 466 kts
2026-05-06 14:30 31.40255 -78.35997 38107 ft 467 kts
2026-05-06 14:30 31.46685 -78.34938 38101 ft 466 kts
2026-05-06 14:31 31.53107 -78.33877 38102 ft 466 kts
2026-05-06 14:31 31.59524 -78.32816 38100 ft 466 kts
2026-05-06 14:32 31.65944 -78.31754 38101 ft 466 kts
2026-05-06 14:32 31.72359 -78.30691 38102 ft 465 kts
2026-05-06 14:33 31.78769 -78.29628 38106 ft 465 kts
2026-05-06 14:33 31.85175 -78.28560 38111 ft 465 kts
2026-05-06 14:34 31.91573 -78.27493 38110 ft 464 kts
2026-05-06 14:34 31.97927 -78.26433 38112 ft 464 kts
2026-05-06 14:35 32.04330 -78.25340 38110 ft 465 kts
2026-05-06 14:35 32.10713 -78.23988 38110 ft 467 kts
2026-05-06 14:36 32.17089 -78.22559 38103 ft 467 kts
2026-05-06 14:36 32.23525 -78.21141 38102 ft 467 kts
2026-05-06 14:37 32.29873 -78.19763 38105 ft 467 kts
2026-05-06 14:37 32.36311 -78.18371 38110 ft 467 kts
2026-05-06 14:38 32.42706 -78.16987 38112 ft 467 kts
2026-05-06 14:38 32.49056 -78.15611 38109 ft 468 kts
2026-05-06 14:39 32.55460 -78.14217 38111 ft 468 kts
2026-05-06 14:39 32.61865 -78.12819 38111 ft 468 kts
2026-05-06 14:40 32.68265 -78.11424 38110 ft 468 kts
2026-05-06 14:40 32.74686 -78.10025 38111 ft 469 kts
2026-05-06 14:41 32.81100 -78.08623 38109 ft 469 kts
2026-05-06 14:41 32.87524 -78.07215 38103 ft 470 kts
2026-05-06 14:42 32.93955 -78.05804 38099 ft 470 kts
2026-05-06 14:42 33.00379 -78.04394 38105 ft 470 kts
2026-05-06 14:43 33.06811 -78.02979 38101 ft 470 kts
2026-05-06 14:43 33.13242 -78.01563 38101 ft 470 kts
2026-05-06 14:44 33.19663 -78.00145 38101 ft 470 kts
2026-05-06 14:45 33.29298 -77.98017 38097 ft 469 kts
2026-05-06 14:45 33.35713 -77.96597 38103 ft 468 kts
2026-05-06 14:46 33.42118 -77.95174 38101 ft 469 kts
2026-05-06 14:46 33.48526 -77.93750 38099 ft 469 kts
2026-05-06 14:47 33.54940 -77.92324 38100 ft 469 kts
2026-05-06 14:47 33.61365 -77.90892 38099 ft 469 kts
2026-05-06 14:48 33.67784 -77.89457 38104 ft 469 kts
2026-05-06 14:48 33.74203 -77.88023 38104 ft 469 kts
2026-05-06 14:49 33.80632 -77.86575 38101 ft 470 kts
2026-05-06 14:49 33.87049 -77.84982 38100 ft 471 kts
2026-05-06 14:50 33.93456 -77.83339 38102 ft 471 kts
2026-05-06 14:50 33.99869 -77.81704 38103 ft 471 kts
2026-05-06 14:51 34.06290 -77.80079 38098 ft 472 kts
2026-05-06 14:51 34.12712 -77.78455 38092 ft 472 kts
2026-05-06 14:52 34.19131 -77.76829 38089 ft 471 kts
2026-05-06 14:52 34.25546 -77.75200 38090 ft 471 kts
2026-05-06 14:53 34.31964 -77.73567 38095 ft 471 kts
2026-05-06 14:53 34.37290 -77.72210 38090 ft 471 kts
2026-05-06 14:54 34.43710 -77.70572 38095 ft 471 kts
2026-05-06 14:54 34.50116 -77.68935 38094 ft 471 kts
2026-05-06 14:55 34.56474 -77.66946 38094 ft 476 kts 13°
2026-05-06 14:55 34.62579 -77.63681 38102 ft 482 kts 20°
2026-05-06 14:56 34.68575 -77.60045 38084 ft 482 kts 21°
2026-05-06 14:56 34.74574 -77.56409 38093 ft 482 kts 20°
2026-05-06 14:57 34.80579 -77.52801 38087 ft 482 kts 20°
2026-05-06 14:57 34.86597 -77.49196 38092 ft 482 kts 20°
2026-05-06 14:58 34.92598 -77.45597 38093 ft 481 kts 20°
2026-05-06 14:58 34.98604 -77.41987 38095 ft 482 kts 20°
2026-05-06 14:59 35.04623 -77.38363 38096 ft 482 kts 20°
2026-05-06 14:59 35.10639 -77.34735 38095 ft 482 kts 20°
2026-05-06 15:00 35.16651 -77.31103 38095 ft 482 kts 20°
2026-05-06 15:00 35.22659 -77.27466 38094 ft 482 kts 20°
2026-05-06 15:01 35.28664 -77.23827 38090 ft 482 kts 20°
2026-05-06 15:01 35.34627 -77.20206 38088 ft 481 kts 20°
2026-05-06 15:02 35.40615 -77.16561 38082 ft 481 kts 20°
2026-05-06 15:02 35.46608 -77.12910 38080 ft 481 kts 20°
2026-05-06 15:03 35.52599 -77.09254 38092 ft 481 kts 20°
2026-05-06 15:03 35.58636 -77.05564 38094 ft 481 kts 20°
2026-05-06 15:04 35.64627 -77.01895 38088 ft 481 kts 20°
2026-05-06 15:04 35.70569 -76.98249 38089 ft 481 kts 20°
2026-05-06 15:05 35.76562 -76.94566 38080 ft 481 kts 21°
2026-05-06 15:05 35.82558 -76.90876 38073 ft 483 kts 20°
2026-05-06 15:06 35.88570 -76.87169 38074 ft 484 kts 20°
2026-05-06 15:06 35.94645 -76.83619 38081 ft 481 kts 17°
2026-05-06 15:07 36.00830 -76.80473 38079 ft 481 kts 15°
2026-05-06 15:07 36.07045 -76.77368 38073 ft 482 kts 16°
2026-05-06 15:08 36.13258 -76.74199 38071 ft 483 kts 16°
2026-05-06 15:08 36.19462 -76.70992 38077 ft 484 kts 16°
2026-05-06 15:09 36.25675 -76.67766 38083 ft 484 kts 16°
2026-05-06 15:09 36.31884 -76.64538 38072 ft 484 kts 16°
2026-05-06 15:10 36.38086 -76.61314 38064 ft 484 kts 16°
2026-05-06 15:10 36.44291 -76.58080 38061 ft 483 kts 16°
2026-05-06 15:11 36.50489 -76.54846 38061 ft 482 kts 16°
2026-05-06 15:11 36.56679 -76.51611 38066 ft 483 kts 16°
2026-05-06 15:12 36.62868 -76.48373 38057 ft 483 kts 16°
2026-05-06 15:12 36.69066 -76.45120 38052 ft 483 kts 17°
2026-05-06 15:13 36.75261 -76.41863 38052 ft 483 kts 16°
2026-05-06 15:13 36.81453 -76.38603 38049 ft 484 kts 16°
2026-05-06 15:14 36.87662 -76.35329 38049 ft 485 kts 16°
2026-05-06 15:14 36.93888 -76.32041 38052 ft 486 kts 17°
2026-05-06 15:15 37.00124 -76.28740 38049 ft 486 kts 17°
2026-05-06 15:15 37.06357 -76.25433 38043 ft 487 kts 17°
2026-05-06 15:16 37.12594 -76.22121 38025 ft 488 kts 17°
2026-05-06 15:16 37.18844 -76.18790 38018 ft 489 kts 17°
2026-05-06 15:17 37.25104 -76.15451 38018 ft 489 kts 17°
2026-05-06 15:17 37.31339 -76.12118 38025 ft 490 kts 17°
2026-05-06 15:18 37.37609 -76.08764 38016 ft 490 kts 17°
2026-05-06 15:18 37.43878 -76.05406 38022 ft 490 kts 17°
2026-05-06 15:19 37.50159 -76.02028 38017 ft 490 kts 17°
2026-05-06 15:19 37.56436 -75.98648 38028 ft 491 kts 17°
2026-05-06 15:20 37.62604 -75.94878 38002 ft 499 kts 25°
2026-05-06 15:20 37.68432 -75.90069 38003 ft 502 kts 27°
2026-05-06 15:21 37.74225 -75.85162 38011 ft 502 kts 27°
2026-05-06 15:21 37.80044 -75.80280 38006 ft 501 kts 27°
2026-05-06 15:22 37.85858 -75.75436 38007 ft 500 kts 27°
2026-05-06 15:22 37.91680 -75.70585 38006 ft 500 kts 27°
2026-05-06 15:23 37.97492 -75.65728 38009 ft 501 kts 27°
2026-05-06 15:23 38.03305 -75.60859 38005 ft 501 kts 27°
2026-05-06 15:24 38.09124 -75.55975 38002 ft 501 kts 27°
2026-05-06 15:24 38.14944 -75.51077 38002 ft 502 kts 27°
2026-05-06 15:25 38.20771 -75.46168 37986 ft 502 kts 27°
2026-05-06 15:25 38.26801 -75.41891 37992 ft 491 kts 15°
2026-05-06 15:26 38.33262 -75.39431 37979 ft 479 kts
2026-05-06 15:26 38.39835 -75.38107 37988 ft 478 kts
2026-05-06 15:27 38.46406 -75.36805 37982 ft 478 kts
2026-05-06 15:27 38.52979 -75.35434 37980 ft 479 kts
2026-05-06 15:28 38.59558 -75.34036 37968 ft 480 kts
2026-05-06 15:28 38.66152 -75.32633 37960 ft 480 kts
2026-05-06 15:29 38.72745 -75.31207 37959 ft 482 kts
2026-05-06 15:29 38.79214 -75.28634 37958 ft 493 kts 16°
2026-05-06 15:30 38.85334 -75.24639 37968 ft 500 kts 23°
2026-05-06 15:30 38.91396 -75.20222 37959 ft 500 kts 24°
2026-05-06 15:31 38.97458 -75.15837 37952 ft 500 kts 23°
2026-05-06 15:31 39.03536 -75.11491 37956 ft 500 kts 23°
2026-05-06 15:32 39.12658 -75.04966 37958 ft 500 kts 23°
2026-05-06 15:32 39.18745 -75.00597 37949 ft 501 kts 23°
2026-05-06 15:33 39.24831 -74.96219 37945 ft 501 kts 24°
2026-05-06 15:33 39.30707 -74.91272 37947 ft 506 kts 29°
2026-05-06 15:34 39.36434 -74.85988 37948 ft 506 kts 30°
2026-05-06 15:34 39.42161 -74.80695 37937 ft 506 kts 30°
2026-05-06 15:35 39.47902 -74.75430 37939 ft 506 kts 30°
2026-05-06 15:35 39.53654 -74.70162 37942 ft 506 kts 30°
2026-05-06 15:36 39.59401 -74.64889 37941 ft 506 kts 30°
2026-05-06 15:36 39.65142 -74.59607 37934 ft 507 kts 30°
2026-05-06 15:37 39.70896 -74.54301 37932 ft 507 kts 30°
2026-05-06 15:37 39.76644 -74.48990 37929 ft 507 kts 30°
2026-05-06 15:38 39.82379 -74.43677 37926 ft 507 kts 30°
2026-05-06 15:38 39.88124 -74.38346 37924 ft 507 kts 30°
2026-05-06 15:39 39.93871 -74.33001 37927 ft 507 kts 30°
2026-05-06 15:39 39.98644 -74.28551 37927 ft 507 kts 30°
2026-05-06 15:40 40.04377 -74.23198 37930 ft 507 kts 30°
2026-05-06 15:40 40.10108 -74.17843 37921 ft 507 kts 30°
2026-05-06 15:41 40.15850 -74.12465 37915 ft 507 kts 30°
2026-05-06 15:41 40.21579 -74.07085 37917 ft 507 kts 30°
2026-05-06 15:42 40.27310 -74.01689 37914 ft 507 kts 30°
2026-05-06 15:42 40.33004 -73.96348 37915 ft 506 kts 28°
2026-05-06 15:43 40.39099 -73.91908 37909 ft 498 kts 19°
2026-05-06 15:43 40.45393 -73.88142 37908 ft 497 kts 19°
2026-05-06 15:44 40.51677 -73.84319 37913 ft 498 kts 19°
2026-05-06 15:44 40.57948 -73.80428 37910 ft 498 kts 19°
2026-05-06 15:45 40.64298 -73.76894 37917 ft 492 kts 12°
2026-05-06 15:45 40.70886 -73.74774 37926 ft 487 kts
2026-05-06 15:46 40.77534 -73.72941 37916 ft 488 kts
2026-05-06 15:46 40.84181 -73.71060 37900 ft 489 kts
2026-05-06 15:47 40.90833 -73.69128 37894 ft 490 kts
2026-05-06 15:47 40.97493 -73.67180 37899 ft 489 kts
2026-05-06 15:48 41.04134 -73.65235 37898 ft 490 kts
2026-05-06 15:48 41.10801 -73.63282 37899 ft 490 kts
2026-05-06 15:49 41.17461 -73.61325 37894 ft 490 kts
2026-05-06 15:49 41.24123 -73.59365 37899 ft 491 kts
2026-05-06 15:50 41.30822 -73.57661 37899 ft 487 kts
2026-05-06 15:50 41.37554 -73.56759 37901 ft 487 kts 360°
2026-05-06 15:51 41.44296 -73.55929 37898 ft 487 kts 360°
2026-05-06 15:51 41.51048 -73.55050 37896 ft 487 kts
2026-05-06 15:52 41.57805 -73.54135 37893 ft 488 kts
2026-05-06 15:52 41.64559 -73.53210 37873 ft 488 kts
2026-05-06 15:53 41.71314 -73.52284 37885 ft 489 kts
2026-05-06 15:53 41.78085 -73.51355 37875 ft 489 kts
2026-05-06 15:54 41.84844 -73.50429 37856 ft 489 kts
2026-05-06 15:54 41.91616 -73.49500 37859 ft 489 kts
2026-05-06 15:55 41.98375 -73.48571 37864 ft 489 kts
2026-05-06 15:55 42.05139 -73.47636 37856 ft 488 kts
2026-05-06 15:56 42.11898 -73.46702 37860 ft 489 kts
2026-05-06 15:56 42.18677 -73.45763 37860 ft 490 kts
2026-05-06 15:57 42.25459 -73.44819 37857 ft 491 kts
2026-05-06 15:57 42.32263 -73.43869 37852 ft 492 kts
2026-05-06 15:58 42.39069 -73.42919 37849 ft 492 kts
2026-05-06 15:58 42.45876 -73.41969 37859 ft 493 kts
2026-05-06 15:59 42.52700 -73.41012 37853 ft 493 kts
2026-05-06 15:59 42.59530 -73.40050 37854 ft 493 kts
2026-05-06 16:00 42.66361 -73.39090 37850 ft 493 kts
2026-05-06 16:00 42.73144 -73.38133 37849 ft 493 kts
2026-05-06 16:01 42.79976 -73.37165 37850 ft 494 kts
2026-05-06 16:01 42.86822 -73.36194 37842 ft 495 kts
2026-05-06 16:02 42.93677 -73.35220 37847 ft 496 kts
2026-05-06 16:02 43.00536 -73.34466 37841 ft 492 kts 355°
2026-05-06 16:03 43.07336 -73.34970 37843 ft 489 kts 351°
2026-05-06 16:03 43.14122 -73.35678 37845 ft 489 kts 351°
2026-05-06 16:04 43.20925 -73.36337 37841 ft 491 kts 351°
2026-05-06 16:04 43.27750 -73.36954 37826 ft 492 kts 351°
2026-05-06 16:05 43.34508 -73.37552 37562 ft 480 kts 351°
2026-05-06 16:05 43.37845 -73.37850 36856 ft 480 kts 351°
2026-05-06 16:05 43.41167 -73.38148 36204 ft 478 kts 351°
2026-05-06 16:06 43.44477 -73.38447 35518 ft 477 kts 351°
2026-05-06 16:06 43.47788 -73.38748 34919 ft 475 kts 351°
2026-05-06 16:06 43.51071 -73.39045 34430 ft 471 kts 351°
2026-05-06 16:06 43.54334 -73.39339 33934 ft 468 kts 351°
2026-05-06 16:07 43.57567 -73.39632 33453 ft 464 kts 351°
2026-05-06 16:07 43.60777 -73.39924 32975 ft 460 kts 351°
2026-05-06 16:07 43.63962 -73.40214 32520 ft 457 kts 352°
2026-05-06 16:07 43.67119 -73.40501 32056 ft 454 kts 352°
2026-05-06 16:08 43.70260 -73.40790 31588 ft 451 kts 352°
2026-05-06 16:08 43.73380 -73.41103 31125 ft 448 kts 351°
2026-05-06 16:08 43.76468 -73.41451 30665 ft 445 kts 351°
2026-05-06 16:08 43.79540 -73.41812 30211 ft 442 kts 351°
2026-05-06 16:09 43.82595 -73.42170 29763 ft 439 kts 351°
2026-05-06 16:09 43.85628 -73.42524 29286 ft 436 kts 351°
2026-05-06 16:09 43.88645 -73.42874 28815 ft 434 kts 351°
2026-05-06 16:09 43.91647 -73.43221 28353 ft 432 kts 351°
2026-05-06 16:10 43.94637 -73.43564 27891 ft 430 kts 351°
2026-05-06 16:10 43.97617 -73.43905 27425 ft 429 kts 351°
2026-05-06 16:10 44.00584 -73.44246 26969 ft 427 kts 351°
2026-05-06 16:10 44.03542 -73.44584 26500 ft 426 kts 351°
2026-05-06 16:11 44.06490 -73.44921 26034 ft 424 kts 351°
2026-05-06 16:11 44.09429 -73.45259 25578 ft 423 kts 351°
2026-05-06 16:11 44.12357 -73.45596 25113 ft 421 kts 351°
2026-05-06 16:11 44.15275 -73.45932 24662 ft 420 kts 351°
2026-05-06 16:12 44.18183 -73.46265 24203 ft 419 kts 351°
2026-05-06 16:12 44.21085 -73.46598 23753 ft 418 kts 351°
2026-05-06 16:12 44.23980 -73.46931 23299 ft 417 kts 351°
2026-05-06 16:12 44.26865 -73.47264 22846 ft 416 kts 351°
2026-05-06 16:13 44.29745 -73.47597 22386 ft 415 kts 351°
2026-05-06 16:13 44.32622 -73.47930 21926 ft 414 kts 351°
2026-05-06 16:13 44.35489 -73.48262 21472 ft 413 kts 351°
2026-05-06 16:13 44.38351 -73.48594 21013 ft 412 kts 351°
2026-05-06 16:14 44.41204 -73.48924 20569 ft 411 kts 351°
2026-05-06 16:14 44.44051 -73.49254 20102 ft 410 kts 351°
2026-05-06 16:14 44.46892 -73.49585 19647 ft 409 kts 351°
2026-05-06 16:14 44.49725 -73.49915 19196 ft 408 kts 351°
2026-05-06 16:15 44.52549 -73.50244 18733 ft 407 kts 351°
2026-05-06 16:15 44.55364 -73.50571 18274 ft 405 kts 351°
2026-05-06 16:15 44.58172 -73.50898 17820 ft 404 kts 351°
2026-05-06 16:15 44.60968 -73.51224 17366 ft 403 kts 351°
2026-05-06 16:16 44.63756 -73.51548 16907 ft 402 kts 352°
2026-05-06 16:16 44.66539 -73.51874 16444 ft 400 kts 352°
2026-05-06 16:16 44.69311 -73.52199 15988 ft 399 kts 352°
2026-05-06 16:16 44.72076 -73.52523 15527 ft 398 kts 352°
2026-05-06 16:17 44.74830 -73.52847 15073 ft 397 kts 352°
2026-05-06 16:17 44.77575 -73.53172 14611 ft 395 kts 352°
2026-05-06 16:17 44.80311 -73.53495 14154 ft 394 kts 352°
2026-05-06 16:17 44.83037 -73.53818 13700 ft 393 kts 352°
2026-05-06 16:18 44.85756 -73.54140 13279 ft 391 kts 352°
2026-05-06 16:18 44.88454 -73.54449 12860 ft 388 kts 352°
2026-05-06 16:18 44.91142 -73.54744 12419 ft 386 kts 352°
2026-05-06 16:18 44.93815 -73.55031 11969 ft 385 kts 352°
2026-05-06 16:19 44.96480 -73.55321 11529 ft 382 kts 352°
2026-05-06 16:19 44.99068 -73.55602 11075 ft 365 kts 353°
2026-05-06 16:19 45.01554 -73.55871 10637 ft 351 kts 352°
2026-05-06 16:19 45.03965 -73.56140 10446 ft 344 kts 352°
2026-05-06 16:20 45.06326 -73.56404 10288 ft 334 kts 353°
2026-05-06 16:20 45.08579 -73.56650 10130 ft 316 kts 352°
2026-05-06 16:20 45.10715 -73.56885 10000 ft 299 kts 352°
2026-05-06 16:20 45.12746 -73.57110 9765 ft 288 kts 352°
2026-05-06 16:21 45.14715 -73.57325 9466 ft 279 kts 352°
2026-05-06 16:21 45.16625 -73.57539 9179 ft 272 kts 352°
2026-05-06 16:21 45.18500 -73.57746 8902 ft 270 kts 352°
2026-05-06 16:21 45.20400 -73.57955 8643 ft 279 kts 352°
2026-05-06 16:22 45.22366 -73.58181 8352 ft 286 kts 353°
2026-05-06 16:22 45.24354 -73.58408 8029 ft 286 kts 353°
2026-05-06 16:22 45.25664 -73.58549 7825 ft 284 kts 353°
2026-05-06 16:22 45.28280 -73.58837 7402 ft 281 kts 353°
2026-05-06 16:23 45.29567 -73.58974 7213 ft 280 kts 353°
2026-05-06 16:23 45.31505 -73.59188 6919 ft 279 kts 353°
2026-05-06 16:23 45.34091 -73.59481 6512 ft 277 kts 354°
2026-05-06 16:23 45.35364 -73.59613 6307 ft 276 kts 354°
2026-05-06 16:24 45.37269 -73.59828 6019 ft 274 kts 353°
2026-05-06 16:24 45.39120 -73.59811 5865 ft 259 kts 10°
2026-05-06 16:24 45.40723 -73.58715 5505 ft 256 kts 33°
2026-05-06 16:24 45.42207 -73.57256 5229 ft 263 kts 33°
2026-05-06 16:25 45.43724 -73.55798 4941 ft 262 kts 33°
2026-05-06 16:25 45.45223 -73.54361 4660 ft 258 kts 33°
2026-05-06 16:25 45.46680 -73.52957 4417 ft 250 kts 33°
2026-05-06 16:25 45.48089 -73.51598 4301 ft 239 kts 33°
2026-05-06 16:26 45.49466 -73.50273 4196 ft 238 kts 33°
2026-05-06 16:26 45.50824 -73.48970 4091 ft 234 kts 33°
2026-05-06 16:26 45.52163 -73.47676 3982 ft 230 kts 33°
2026-05-06 16:26 45.53476 -73.46409 3982 ft 227 kts 33°
2026-05-06 16:27 45.54778 -73.45152 3995 ft 226 kts 33°
2026-05-06 16:27 45.56073 -73.43899 3996 ft 225 kts 33°
2026-05-06 16:27 45.57309 -73.42523 3948 ft 228 kts 41°
2026-05-06 16:27 45.58481 -73.40995 3827 ft 227 kts 42°
2026-05-06 16:28 45.59693 -73.39606 3717 ft 222 kts 24°
2026-05-06 16:28 45.61186 -73.39342 3629 ft 218 kts 346°
2026-05-06 16:28 45.62505 -73.40358 3551 ft 220 kts 313°
2026-05-06 16:28 45.63282 -73.42222 3487 ft 221 kts 285°
2026-05-06 16:29 45.63443 -73.44386 3395 ft 219 kts 269°
2026-05-06 16:29 45.63399 -73.46544 3292 ft 216 kts 267°
2026-05-06 16:29 45.63349 -73.48667 3199 ft 213 kts 268°
2026-05-06 16:29 45.63305 -73.50785 3123 ft 214 kts 268°
2026-05-06 16:30 45.63194 -73.52878 3086 ft 209 kts 255°
2026-05-06 16:30 45.62780 -73.54122 3029 ft 210 kts 233°
2026-05-06 16:30 45.61469 -73.56219 3010 ft 214 kts 225°
2026-05-06 16:30 45.60400 -73.57707 3002 ft 214 kts 223°
2026-05-06 16:31 45.59309 -73.59152 2992 ft 212 kts 223°
2026-05-06 16:31 45.58232 -73.60568 2733 ft 208 kts 223°
2026-05-06 16:31 45.57196 -73.61932 2473 ft 197 kts 222°
2026-05-06 16:31 45.56227 -73.63206 2199 ft 181 kts 222°
2026-05-06 16:32 45.55335 -73.64380 1968 ft 171 kts 222°
2026-05-06 16:32 45.54465 -73.65527 1776 ft 165 kts 222°
2026-05-06 16:32 45.53648 -73.66601 1530 ft 154 kts 222°
2026-05-06 16:32 45.52888 -73.67602 1330 ft 144 kts 222°
2026-05-06 16:33 45.52158 -73.68557 1147 ft 142 kts 221°
2026-05-06 16:33 45.51418 -73.69487 979 ft 142 kts 220°
2026-05-06 16:33 45.50680 -73.70420 799 ft 142 kts 224°
2026-05-06 16:34 45.49272 -73.72380 449 ft 144 kts 219°
2026-05-06 16:34 45.48535 -73.73323 240 ft 142 kts 223°
2026-05-06 16:34 45.47816 -73.74266 126 ft 137 kts 222°
2026-05-06 16:34 45.47215 -73.75050 120 ft 87 kts 223°
2026-05-06 16:35 45.46924 -73.75434 116 ft 33 kts 222°
2026-05-06 16:35 45.46784 -73.75560 117 ft 14 kts 201°
2026-05-06 16:35 45.46717 -73.75592 119 ft 9 kts 195°
2026-05-06 16:35 45.46657 -73.75614 119 ft 9 kts 193°
2026-05-06 16:36 45.46597 -73.75633 119 ft 9 kts 192°
2026-05-06 16:36 45.46536 -73.75651 119 ft 9 kts 191°
2026-05-06 16:36 45.46476 -73.75669 121 ft 9 kts 193°
2026-05-06 16:36 45.46413 -73.75691 117 ft 10 kts 193°
2026-05-06 16:37 45.46346 -73.75713 116 ft 10 kts 192°
2026-05-06 16:37 45.46278 -73.75727 115 ft 10 kts 183°
2026-05-06 16:37 45.46209 -73.75723 115 ft 10 kts 177°
2026-05-06 16:37 45.46140 -73.75721 117 ft 10 kts 179°
2026-05-06 16:38 45.46068 -73.75730 114 ft 11 kts 191°
2026-05-06 16:38 45.45993 -73.75734 111 ft 8 kts 178°
2026-05-06 16:38 45.45979 -73.75733 113 ft 0 kts 178°